�������l�o���
Date,Time,MP-1(��Sv/h),MP-2(��Sv/h),MP-3(��Sv/h),MP-4(��Sv/h),MP-5(��Sv/h),MP-6(��Sv/h),MP-7(��Sv/h),MP-8(��Sv/h),����,����(m/s),���J
2022/10/22,00:00,0.570,0.820,0.526,1.019,0.724,0.335,0.583,0.551,��,4.1,��
2022/10/22,00:10,0.569,0.817,0.526,1.022,0.722,0.335,0.584,0.551,��,3.5,��
2022/10/22,00:20,0.568,0.820,0.526,1.020,0.722,0.335,0.582,0.551,��쐼,3.2,��
2022/10/22,00:30,0.567,0.818,0.528,1.019,0.722,0.335,0.583,0.551,��쐼,3.0,��
2022/10/22,00:40,0.567,0.819,0.525,1.016,0.721,0.335,0.583,0.550,��쐼,3.1,��
2022/10/22,00:50,0.567,0.820,0.525,1.020,0.722,0.336,0.583,0.551,��쐼,2.0,��
2022/10/22,01:00,0.567,0.818,0.525,1.019,0.723,0.334,0.584,0.551,�쐼,1.1,��
2022/10/22,01:10,0.567,0.820,0.527,1.018,0.720,0.337,0.583,0.551,�k��,1.4,��
2022/10/22,01:20,0.568,0.818,0.525,1.019,0.724,0.336,0.582,0.553,�k�k��,1.7,��
2022/10/22,01:30,0.567,0.819,0.526,1.019,0.725,0.334,0.582,0.551,�k��,1.5,��
2022/10/22,01:40,0.568,0.819,0.526,1.022,0.722,0.336,0.582,0.552,�k,1.1,��
2022/10/22,01:50,0.567,0.821,0.524,1.022,0.721,0.334,0.582,0.552,�k,0.6,��
2022/10/22,02:00,0.569,0.819,0.527,1.019,0.721,0.335,0.582,0.552,�k��,0.9,��
2022/10/22,02:10,0.568,0.818,0.527,1.020,0.722,0.335,0.583,0.551,�k�k��,2.0,��
2022/10/22,02:20,0.567,0.818,0.525,1.019,0.723,0.334,0.583,0.552,�k��,3.6,��
2022/10/22,02:30,0.568,0.819,0.526,1.019,0.723,0.336,0.583,0.552,�k��,5.6,��
2022/10/22,02:40,0.568,0.820,0.526,1.020,0.723,0.336,0.583,0.554,�k�k��,5.2,��
2022/10/22,02:50,0.567,0.818,0.526,1.020,0.721,0.335,0.583,0.552,�k�k��,3.4,��
2022/10/22,03:00,0.568,0.818,0.525,1.018,0.723,0.335,0.584,0.551,�k��,2.3,��
2022/10/22,03:10,0.567,0.818,0.526,1.020,0.724,0.335,0.584,0.550,���k��,1.7,��
2022/10/22,03:20,0.567,0.819,0.526,1.020,0.722,0.336,0.584,0.552,�k��,2.3,��
2022/10/22,03:30,0.567,0.818,0.527,1.018,0.721,0.335,0.581,0.551,�k��,3.7,��
2022/10/22,03:40,0.565,0.820,0.524,1.019,0.721,0.336,0.583,0.551,�k��,3.9,��
2022/10/22,03:50,0.567,0.820,0.526,1.019,0.721,0.335,0.583,0.552,�k��,4.0,��
2022/10/22,04:00,0.568,0.819,0.526,1.019,0.722,0.335,0.583,0.552,�k,2.8,��
2022/10/22,04:10,0.566,0.819,0.527,1.018,0.724,0.335,0.584,0.553,�k�k��,3.1,��
2022/10/22,04:20,0.567,0.817,0.525,1.019,0.722,0.335,0.581,0.550,�k�k��,3.2,��
2022/10/22,04:30,0.567,0.818,0.526,1.018,0.721,0.335,0.583,0.552,�k��,2.8,��
2022/10/22,04:40,0.566,0.818,0.526,1.020,0.722,0.335,0.583,0.553,�k��,2.3,��
2022/10/22,04:50,0.568,0.819,0.527,1.019,0.722,0.335,0.585,0.552,���k��,2.8,��
2022/10/22,05:00,0.567,0.819,0.526,1.020,0.722,0.335,0.582,0.553,��,2.6,��
2022/10/22,05:10,0.567,0.818,0.525,1.020,0.722,0.335,0.584,0.552,�쐼,3.4,��
2022/10/22,05:20,0.568,0.819,0.526,1.020,0.721,0.334,0.583,0.553,�쐼,3.2,��
2022/10/22,05:30,0.567,0.819,0.526,1.020,0.722,0.336,0.582,0.552,�쐼,4.5,��
2022/10/22,05:40,0.568,0.817,0.526,1.018,0.722,0.335,0.583,0.554,�쐼,4.4,��
2022/10/22,05:50,0.567,0.820,0.525,1.021,0.722,0.334,0.583,0.552,��쐼,3.6,��
2022/10/22,06:00,0.567,0.819,0.527,1.020,0.724,0.335,0.583,0.553,��,3.7,��
2022/10/22,06:10,0.569,0.821,0.528,1.022,0.720,0.335,0.583,0.552,��쐼,3.5,��
2022/10/22,06:20,0.566,0.818,0.524,1.019,0.722,0.336,0.583,0.552,��쐼,4.1,��
2022/10/22,06:30,0.567,0.817,0.527,1.019,0.721,0.335,0.584,0.552,��쐼,3.8,��
2022/10/22,06:40,0.567,0.820,0.527,1.020,0.721,0.335,0.582,0.552,��쐼,4.1,��
2022/10/22,06:50,0.567,0.817,0.525,1.021,0.721,0.336,0.584,0.552,��쐼,4.2,��
2022/10/22,07:00,0.568,0.819,0.526,1.019,0.721,0.336,0.585,0.551,��쐼,4.4,��
2022/10/22,07:10,0.567,0.818,0.525,1.020,0.722,0.335,0.584,0.552,��,5.0,��
2022/10/22,07:20,0.569,0.820,0.526,1.020,0.721,0.336,0.584,0.551,��,5.2,��
2022/10/22,07:30,0.568,0.821,0.527,1.019,0.721,0.336,0.584,0.551,��,4.7,��
2022/10/22,07:40,0.569,0.820,0.528,1.019,0.722,0.335,0.584,0.551,��쐼,4.0,��
2022/10/22,07:50,0.569,0.821,0.527,1.021,0.722,0.336,0.586,0.552,��쐼,2.9,��
2022/10/22,08:00,0.570,0.819,0.525,1.018,0.721,0.336,0.586,0.553,�쐼,3.1,��
2022/10/22,08:10,0.569,0.820,0.528,1.021,0.723,0.336,0.584,0.552,�쐼,2.3,��
2022/10/22,08:20,0.569,0.820,0.527,1.022,0.721,0.336,0.583,0.552,��,2.2,��
2022/10/22,08:30,0.569,0.817,0.526,1.020,0.723,0.336,0.583,0.553,��,2.6,��
2022/10/22,08:40,0.568,0.820,0.526,1.020,0.724,0.336,0.581,0.551,��쐼,2.5,��
2022/10/22,08:50,0.567,0.820,0.528,1.019,0.726,0.336,0.584,0.552,��,1.9,��
2022/10/22,09:00,0.567,0.818,0.527,1.022,0.724,0.338,0.583,0.553,��,1.9,��
2022/10/22,09:10,0.570,0.817,0.526,1.020,0.722,0.338,0.584,0.554,��,3.1,��
2022/10/22,09:20,0.569,0.819,0.527,1.022,0.721,0.337,0.583,0.554,��,3.8,��
2022/10/22,09:30,0.568,0.819,0.529,1.021,0.724,0.338,0.584,0.554,��,2.0,��
2022/10/22,09:40,0.569,0.819,0.527,1.021,0.721,0.336,0.584,0.554,��,3.5,��
2022/10/22,09:50,0.569,0.818,0.528,1.022,0.723,0.335,0.582,0.553,��쐼,4.5,��
2022/10/22,10:00,0.570,0.820,0.528,1.021,0.720,0.335,0.584,0.552,��쐼,4.6,��
2022/10/22,10:10,0.569,0.820,0.527,1.022,0.723,0.336,0.584,0.552,��,4.5,��
2022/10/22,10:20,0.570,0.818,0.529,1.021,0.721,0.335,0.584,0.550,��,4.3,��
2022/10/22,10:30,0.570,0.819,0.527,1.023,0.723,0.336,0.584,0.552,��,5.0,��
2022/10/22,10:40,0.570,0.819,0.527,1.023,0.721,0.335,0.583,0.549,��,4.7,��
2022/10/22,10:50,0.569,0.819,0.528,1.022,0.723,0.335,0.583,0.550,��,4.7,��
2022/10/22,11:00,0.568,0.819,0.528,1.023,0.725,0.334,0.586,0.551,��쐼,4.0,��
2022/10/22,11:10,0.571,0.820,0.529,1.022,0.722,0.335,0.584,0.551,��,5.2,��
2022/10/22,11:20,0.571,0.818,0.526,1.022,0.724,0.337,0.584,0.551,��,5.0,��
2022/10/22,11:30,0.569,0.820,0.527,1.024,0.722,0.334,0.584,0.553,��,5.0,��
2022/10/22,11:40,0.569,0.819,0.527,1.023,0.723,0.336,0.583,0.551,��,5.9,��
2022/10/22,11:50,0.570,0.818,0.526,1.023,0.724,0.336,0.583,0.550,��,5.0,��
2022/10/22,12:00,0.569,0.819,0.529,1.022,0.724,0.335,0.584,0.549,��,4.1,��
2022/10/22,12:10,0.569,0.819,0.530,1.021,0.723,0.336,0.583,0.551,��쐼,3.6,��
2022/10/22,12:20,0.570,0.818,0.528,1.022,0.724,0.333,0.584,0.551,��쐼,2.9,��
2022/10/22,12:30,0.569,0.820,0.529,1.024,0.723,0.335,0.584,0.553,��쐼,2.5,��
2022/10/22,12:40,0.568,0.818,0.529,1.024,0.725,0.335,0.582,0.552,��,2.6,��
2022/10/22,12:50,0.569,0.821,0.529,1.023,0.726,0.335,0.584,0.552,��쓌,5.0,��
2022/10/22,13:00,0.568,0.818,0.529,1.024,0.724,0.336,0.584,0.552,��,5.7,��
2022/10/22,13:10,0.570,0.819,0.528,1.022,0.726,0.336,0.583,0.553,��,3.5,��
2022/10/22,13:20,0.570,0.820,0.530,1.024,0.727,0.335,0.585,0.551,��,2.0,��
2022/10/22,13:30,0.569,0.820,0.530,1.025,0.727,0.336,0.583,0.551,��쐼,2.5,��
2022/10/22,13:40,0.569,0.823,0.529,1.022,0.726,0.336,0.584,0.553,�쐼,2.0,��
2022/10/22,13:50,0.569,0.822,0.529,1.025,0.724,0.336,0.582,0.553,��쐼,1.2,��
2022/10/22,14:00,0.570,0.824,0.530,1.023,0.725,0.336,0.583,0.552,��,1.5,��
2022/10/22,14:10,0.571,0.824,0.530,1.024,0.726,0.335,0.583,0.551,��,1.7,��
2022/10/22,14:20,0.570,0.824,0.529,1.024,0.727,0.334,0.584,0.554,�쐼,1.2,��
2022/10/22,14:30,0.571,0.824,0.529,1.024,0.727,0.338,0.584,0.552,��,1.7,��
2022/10/22,14:40,0.571,0.822,0.528,1.022,0.728,0.335,0.584,0.552,��쐼,1.7,��
2022/10/22,14:50,0.572,0.825,0.532,1.023,0.726,0.336,0.585,0.554,��쓌,1.4,��
2022/10/22,15:00,0.572,0.823,0.531,1.025,0.726,0.336,0.584,0.555,��쓌,2.6,��
2022/10/22,15:10,0.573,0.824,0.529,1.023,0.726,0.337,0.583,0.553,��쓌,3.8,��
2022/10/22,15:20,0.572,0.824,0.529,1.024,0.726,0.335,0.584,0.553,��,3.8,��
2022/10/22,15:30,0.572,0.825,0.530,1.024,0.726,0.336,0.584,0.555,��쓌,5.2,��
2022/10/22,15:40,0.570,0.824,0.531,1.026,0.727,0.336,0.584,0.553,��,5.7,��
2022/10/22,15:50,0.572,0.825,0.531,1.023,0.725,0.337,0.583,0.555,��,4.9,��
2022/10/22,16:00,0.572,0.824,0.532,1.023,0.726,0.337,0.583,0.554,��,4.4,��
2022/10/22,16:10,0.570,0.825,0.531,1.024,0.726,0.338,0.585,0.552,��쐼,5.3,�L
2022/10/22,16:20,0.573,0.823,0.530,1.025,0.726,0.336,0.585,0.554,��,6.5,��
2022/10/22,16:30,0.572,0.825,0.530,1.025,0.725,0.337,0.585,0.553,��,7.1,��
2022/10/22,16:40,0.571,0.826,0.531,1.024,0.727,0.335,0.586,0.555,��,5.4,��
2022/10/22,16:50,0.572,0.825,0.529,1.023,0.727,0.338,0.586,0.554,��,7.3,��
2022/10/22,17:00,0.573,0.821,0.531,1.024,0.728,0.337,0.584,0.554,��쐼,4.9,��
2022/10/22,17:10,0.572,0.825,0.528,1.024,0.726,0.338,0.586,0.554,��쐼,4.0,��
2022/10/22,17:20,0.572,0.824,0.528,1.025,0.726,0.336,0.586,0.553,��쐼,3.3,��
2022/10/22,17:30,0.573,0.824,0.529,1.024,0.726,0.336,0.586,0.554,��,4.6,��
2022/10/22,17:40,0.573,0.824,0.531,1.022,0.727,0.336,0.585,0.554,��,3.6,�L
2022/10/22,17:50,0.574,0.824,0.530,1.024,0.726,0.336,0.585,0.554,��,4.6,�L
2022/10/22,18:00,0.573,0.823,0.530,1.025,0.727,0.337,0.585,0.554,��,3.8,��
2022/10/22,18:10,0.572,0.823,0.529,1.025,0.726,0.338,0.584,0.554,��,4.2,��
2022/10/22,18:20,0.573,0.826,0.530,1.024,0.725,0.339,0.585,0.554,��,3.1,��
2022/10/22,18:30,0.573,0.824,0.529,1.025,0.726,0.337,0.586,0.553,��,2.5,��
2022/10/22,18:40,0.571,0.823,0.529,1.025,0.726,0.337,0.586,0.552,��,2.9,��
2022/10/22,18:50,0.572,0.824,0.530,1.024,0.727,0.337,0.586,0.553,��쓌,5.2,��
2022/10/22,19:00,0.573,0.824,0.530,1.023,0.727,0.338,0.585,0.553,��쐼,3.9,��
2022/10/22,19:10,0.571,0.824,0.530,1.023,0.726,0.338,0.585,0.553,��쐼,4.8,��
2022/10/22,19:20,0.573,0.824,0.531,1.025,0.727,0.338,0.586,0.553,��쐼,4.7,��
2022/10/22,19:30,0.572,0.824,0.530,1.024,0.725,0.339,0.585,0.555,��쐼,4.9,��
2022/10/22,19:40,0.572,0.825,0.528,1.024,0.727,0.338,0.585,0.554,��쐼,6.2,��
2022/10/22,19:50,0.572,0.825,0.530,1.024,0.726,0.340,0.586,0.553,��쐼,4.2,��
2022/10/22,20:00,0.574,0.825,0.530,1.025,0.728,0.337,0.584,0.553,��쐼,3.8,��
2022/10/22,20:10,0.572,0.824,0.529,1.020,0.726,0.336,0.585,0.554,��쐼,2.3,��
2022/10/22,20:20,0.572,0.823,0.530,1.026,0.726,0.337,0.583,0.553,��,1.5,��
2022/10/22,20:30,0.572,0.823,0.530,1.023,0.725,0.336,0.585,0.553,��,0.9,��
2022/10/22,20:40,0.572,0.822,0.529,1.024,0.726,0.337,0.585,0.552,���쐼,0.8,��
2022/10/22,20:50,0.574,0.822,0.530,1.025,0.727,0.339,0.587,0.553,���쐼,2.6,��
2022/10/22,21:00,0.573,0.824,0.530,1.024,0.727,0.338,0.586,0.552,���쐼,3.9,��
2022/10/22,21:10,0.573,0.823,0.529,1.025,0.727,0.337,0.586,0.554,���쐼,4.5,��
2022/10/22,21:20,0.573,0.822,0.530,1.022,0.725,0.336,0.586,0.554,��,5.2,��
2022/10/22,21:30,0.574,0.822,0.530,1.025,0.724,0.338,0.587,0.553,��,5.1,��
2022/10/22,21:40,0.573,0.825,0.530,1.025,0.724,0.338,0.586,0.554,��,5.6,��
2022/10/22,21:50,0.571,0.821,0.529,1.026,0.727,0.337,0.586,0.553,��,6.8,��
2022/10/22,22:00,0.575,0.822,0.530,1.025,0.727,0.337,0.587,0.553,��,5.8,��
2022/10/22,22:10,0.573,0.822,0.529,1.023,0.727,0.338,0.585,0.554,��,5.3,��
2022/10/22,22:20,0.573,0.823,0.529,1.024,0.726,0.337,0.585,0.555,��,5.5,��
2022/10/22,22:30,0.571,0.824,0.530,1.026,0.727,0.336,0.585,0.554,��,6.3,��
2022/10/22,22:40,0.572,0.823,0.531,1.026,0.724,0.335,0.585,0.553,��,6.4,��
2022/10/22,22:50,0.574,0.823,0.529,1.027,0.727,0.337,0.585,0.555,��,5.7,��
2022/10/22,23:00,0.574,0.823,0.528,1.028,0.725,0.336,0.585,0.555,��,7.0,��
2022/10/22,23:10,0.574,0.824,0.530,1.027,0.725,0.337,0.586,0.553,��,5.4,��
2022/10/22,23:20,0.572,0.824,0.530,1.027,0.726,0.337,0.585,0.555,��,6.0,��
2022/10/22,23:30,0.574,0.824,0.530,1.026,0.725,0.337,0.586,0.553,���k��,7.3,��
2022/10/22,23:40,0.572,0.824,0.528,1.028,0.726,0.336,0.586,0.554,���k��,5.9,��
2022/10/22,23:50,0.572,0.822,0.529,1.027,0.727,0.336,0.584,0.555,���k��,7.3,��
